Regional Weather Roundup
Issued by NWS

Home | Current Version | Previous Version | Graphics & Text | Print | Product List | Glossary On
Versions: 1 2 3 4 5 6 7 8 9 10 11 12 13 14 15 16 17 18 19 20 21 22 23 24 25 26 27
000
ASUS45 KBOU 211610
RWRCO

WEATHER ROUNDUP FOR COLORADO
NATIONAL WEATHER SERVICE DENVER/BOULDER CO
900 AM MST TUE NOV 21 2017

NOTE: "FAIR" INDICATES FEW OR NO CLOUDS BELOW 12000 FEET WITH NO
SIGNIFICANT WEATHER AND/OR OBSTRUCTIONS TO VISIBILITY.

COZ001>005-013-030-031-211700-
...NORTHWEST COLORADO...

CITY           SKY/WX    TMP DP  RH WIND       PRES   REMARKS
CRAIG          CLOUDY    37  32  82 CALM      30.31R
HAYDEN         CLOUDY    36  32  85 CALM      30.32
MEEKER         LGT RAIN  38  34  85 CALM      30.34R
RABBIT EARS PA SNOW      27  27 100 W13G22    30.31R VSB 1/4 WCI  16
STEAMBOAT SPGS CLOUDY    32  32 100 E5        30.31R WCI  27
WALDEN         CLOUDY    34  32  93 N3        30.29R
$$

COZ006>008-011-211700-
...WEST CENTRAL VALLEYS...

CITY           SKY/WX    TMP DP  RH WIND       PRES   REMARKS
GRAND JUNCTION FAIR      41  22  46 NE5       30.35R
MONTROSE       FAIR      39  23  52 E3        30.37R
EAGLE          CLOUDY    38  28  67 W3        30.35R
RIFLE          PTSUNNY   36  31  82 E5        30.37S
DELTA          FAIR      38  24  55 NE5       30.38R
NUCLA          FAIR      34  12  40 CALM      30.39R
$$

COZ017>023-064>068-211700-
...SOUTHWEST COLORADO...

CITY           SKY/WX    TMP DP  RH WIND       PRES   REMARKS
DURANGO        FAIR      31  17  56 CALM      30.29R
CORTEZ         FAIR      41  18  39 CALM      30.31R
PAGOSA SPRINGS FAIR      35  20  55 S7        30.30R WCI  29
TELLURIDE      CLOUDY    39  27  62 CALM      30.42R
WOLF CREEK PAS FAIR      32  19  59 NW13G28   30.43R WCI  22
$$

COZ009-010-012-014-032>034-037-058>063-211700-
...CENTRAL COLORADO...

CITY           SKY/WX    TMP DP  RH WIND       PRES   REMARKS
ASPEN          PTSUNNY   32  28  85 CALM      30.35R
BUENA VISTA    FAIR      43  28  54 CALM      30.28R
COPPER MTN     LGT SNOW  28  23  80 MISG      30.36R
BERTHOUD PASS  CLOUDY    21  10  63 NW37G52   30.29R WCI   1
COTTONWOOD PAS PTSUNNY   41  30  65 NW6       30.31R
GUNNISON       FAIR      31  24  75 CALM      30.38R
KREMMLING      PTSUNNY   39  34  81 CALM      30.31S
LEADVILLE      LGT SNOW  30  26  85 NW6       30.33R FOG     WCI  24
MONARCH PASS   FOG       23  21  93 W33       30.47R VSB<1/4 WCI   5
SALIDA         FAIR      46  26  45 NW6       30.36R
SUNLIGHT       FOG       28  27  93 W9G21     30.42R VSB 1/2 WCI  20
WILKERSON PASS FAIR      28  23  80 N16G33    30.35R WCI  17
$$

COZ069>075-211700-
...SAN LUIS VALLEY/SANGRE DE CRISTO MOUNTAINS...

CITY           SKY/WX    TMP DP  RH WIND       PRES   REMARKS
ALAMOSA        FAIR      39  14  36 CALM      30.29R
DEL NORTE      FAIR      43  16  33 CALM      30.26S
LA VETA PASS   FAIR      37  18  44 CALM        N/A
SAGUACHE       FAIR      43  25  49 N17       30.32R
$$

COZ035-036-038>040-211700-
...NORTHERN COLORADO FRONT RANGE...

CITY           SKY/WX    TMP DP  RH WIND       PRES   REMARKS
DENVER INTL AP FLURRIES  34  28  79 E15       30.29R WCI  24
DMNS CITY PARK   N/A     40  31  69 NE13G22   30.30R
AURORA         LGT RAIN  34  28  79 NE12      30.29R WCI  25
FRONT RANGE AP LGT SNOW  36  30  80 NE12      30.30R
ERIE MUNI ARPT CLOUDY    41  32  70 NE12G17   30.34R
BOULDER MUN AP CLOUDY    41  32  70 E10G20    30.28R
CENTENNIAL     LGT RAIN  40  34  79 NE14      30.28R
BROOMFIELD     NOT AVBL
FORT COLLINS   CLOUDY    40  36  86 E10       30.28R
LONGMONT       CLOUDY    45  35  69 E9        30.30R
$$

COZ041-046-047-076>085-087-088-211700-
...PIKES PEAK/PALMER DIVIDE AND SOUTHERN FOOTHILLS...

CITY           SKY/WX    TMP DP  RH WIND       PRES   REMARKS
COLO. SPRINGS  PTSUNNY   44  35  70 N22       30.25R
A. F. ACADEMY  LGT RAIN  40  35  84 NW15      30.27R
SCHRIEVER AFB  LGT RAIN  41  36  82 NE21G28   30.25R
CHEYENNE MTN   LGT RAIN  40  35  83 N14       30.22R
ELLICOTT       LGT RAIN N/A N/A N/A N23       30.25R
FALCON         LGT RAIN  38  37  93 N12       30.28R
FORT CARSON    NOT AVBL
LIMON          CLOUDY    38  29  70 N14       30.27R
MONUMENT HILL  CLOUDY    34  32  93 NE10G20   30.29R WCI  26
CANON CITY     FAIR      57  30  35 SW7       30.21R
WALSENBURG     FAIR      48  25  40 E9        30.26R
TRINIDAD       CLOUDY    47  18  31 E6        30.24R
$$

COZ042>045-048>051-090-091-211700-
...NORTHEAST COLORADO...

CITY           SKY/WX    TMP DP  RH WIND       PRES   REMARKS
GREELEY ARPT   PTSUNNY   42  28  57 NE13      30.29R
AKRON          FAIR      35  24  64 N9        30.27R WCI  28
BURLINGTON     FAIR      39  26  59 N18G28    30.25R
WRAY           NOT AVBL
YUMA           PTSUNNY   34  27  75 N13G22    30.27R WCI  25
STERLING       FAIR      36  28  75 N14       30.27R
HOLYOKE        FAIR      39  28  65 N20G25    30.26R
FORT MORGAN    FAIR      38  24  55 NE12      30.30R
$$

COZ086-089-092>099-211700-
...SOUTHEAST COLORADO...

CITY           SKY/WX    TMP DP  RH WIND       PRES   REMARKS
PUEBLO         FAIR      52  35  52 NE16G23   30.23R
LA JUNTA       LGT RAIN  50  39  66 N15G31    30.21R
LAMAR          CLOUDY    54  29  38 N18       30.18R
SPRINGFIELD      N/A     55  32  41 N31G41    30.16R
$$




USA.gov is the U.S. government's official web portal to all federal, state and local government web resources and services.